Date String (YYYY-MM-DD hh:mm:ss) UTC,Instrument flags,Ambient pressure (hPa),Sample flow (lpm),Bypass flow (lpm),Sample temperature (°C),Ambient temperature (°C),ASC tube jacket temperature (°C),LED temperature (°C),Box temperature (°C),Sample RH (%),Span deviation,Mass concentration (μg/m³),Mass concentration (μg/m³),Mass concentration (μg/m³)
DateTimeUTC,F1_M11,P_M11,Q1_M11,Q2_M11,T1_M11,T2_M11,T3_M11,T4_M11,T5_M11,U1_M11,ZSPAN_M11,X0_M11,X2_M11,X1_M11
2022-04-17 23:00:00,,0826.1,5.00,0.00,26.6,25.8,00.0,35.4,28.4,11.7,0000.0,0026.13,0008.63,0003.00
2022-04-17 23:01:00,,0826.1,5.00,0.00,26.6,25.8,00.0,35.4,28.4,11.5,0000.0,0026.24,0008.58,0002.99
2022-04-17 23:02:00,,0826.2,4.99,0.00,26.6,25.8,00.0,35.4,28.4,11.7,0000.0,0026.13,0008.51,0002.95
2022-04-17 23:03:00,,0826.2,5.01,0.00,26.6,25.9,00.0,35.5,28.5,11.7,0000.0,0026.21,0008.46,0002.93
2022-04-17 23:04:00,,0826.3,5.00,0.00,26.6,25.9,00.0,35.5,28.5,11.6,0000.0,0026.19,0008.31,0002.90
2022-04-17 23:05:00,,0826.4,4.99,0.00,26.6,25.9,00.0,35.5,28.5,11.5,0000.0,0026.28,0008.30,0002.92
2022-04-17 23:06:00,,0826.5,4.99,0.00,26.6,25.9,00.0,35.5,28.5,11.5,0000.0,0026.09,0008.28,0002.89
2022-04-17 23:07:00,,0826.3,5.00,0.00,26.6,25.9,00.0,35.5,28.5,11.5,0000.0,0026.49,0008.31,0002.90
2022-04-17 23:08:00,,0826.3,5.00,0.00,26.7,25.9,00.0,35.5,28.5,11.4,0000.0,0026.89,0008.38,0002.93
2022-04-17 23:09:00,,0826.4,5.00,0.00,26.7,25.9,00.0,35.5,28.5,11.5,0000.0,0026.73,0008.46,0002.91
2022-04-17 23:10:00,,0826.5,5.00,0.00,26.7,26.0,00.0,35.5,28.5,11.6,0000.0,0026.63,0008.42,0002.90
2022-04-17 23:11:00,,0826.6,4.99,0.00,26.7,26.0,00.0,35.5,28.5,12.7,0000.0,0026.65,0008.40,0002.91
2022-04-17 23:12:00,,0826.3,5.00,0.00,26.7,25.9,00.0,35.5,28.5,12.8,0000.0,0026.28,0008.35,0002.89
2022-04-17 23:13:00,,0826.2,5.00,0.00,26.7,25.9,00.0,35.5,28.5,11.8,0000.0,0025.45,0008.38,0002.92
2022-04-17 23:14:00,,0826.4,4.99,0.00,26.7,25.9,00.0,35.5,28.6,11.9,0000.0,0025.31,0008.37,0002.93
2022-04-17 23:15:00,,0826.4,5.00,0.00,26.7,25.9,00.0,35.5,28.6,12.2,0000.0,0025.44,0008.51,0002.94
2022-04-17 23:16:00,,0826.4,5.02,0.00,26.7,25.9,00.0,35.6,28.6,12.8,0000.0,0024.89,0008.47,0002.90
2022-04-17 23:17:00,,0826.5,4.99,0.00,26.7,25.9,00.0,35.6,28.5,13.0,0000.0,0025.15,0008.46,0002.91
2022-04-17 23:18:00,,0826.5,4.99,0.00,26.7,25.9,00.0,35.6,28.5,12.9,0000.0,0025.61,0008.56,0002.91
2022-04-17 23:19:00,,0826.5,5.00,0.00,26.7,25.9,00.0,35.6,28.5,12.7,0000.0,0025.10,0008.47,0002.86
2022-04-17 23:20:00,,0826.3,5.02,0.00,26.7,25.9,00.0,35.6,28.5,12.1,0000.0,0024.70,0008.41,0002.85
2022-04-17 23:21:00,,0826.3,5.00,0.00,26.7,26.0,00.0,35.6,28.5,12.1,0000.0,0024.23,0008.42,0002.85
2022-04-17 23:22:00,,0826.2,4.99,0.00,26.7,26.0,00.0,35.6,28.6,11.9,0000.0,0024.76,0008.44,0002.87
2022-04-17 23:23:00,,0826.2,4.99,0.00,26.7,26.0,00.0,35.6,28.6,12.1,0000.0,0024.77,0008.46,0002.88
2022-04-17 23:24:00,,0826.2,5.01,0.00,26.7,26.0,00.0,35.6,28.6,12.0,0000.0,0024.60,0008.36,0002.86
2022-04-17 23:25:00,,0826.2,5.01,0.00,26.7,26.0,00.0,35.6,28.6,12.1,0000.0,0024.76,0008.41,0002.86
2022-04-17 23:26:00,,0826.1,4.99,0.00,26.7,26.0,00.0,35.6,28.6,11.9,0000.0,0025.05,0008.40,0002.86
2022-04-17 23:27:00,,0826.1,4.99,0.00,26.8,26.0,00.0,35.6,28.6,11.9,0000.0,0025.80,0008.45,0002.90
2022-04-17 23:28:00,,0826.2,5.00,0.00,26.8,26.0,00.0,35.6,28.6,11.9,0000.0,0026.28,0008.42,0002.90
2022-04-17 23:29:00,,0826.1,5.02,0.00,26.8,26.0,00.0,35.6,28.7,11.9,0000.0,0026.52,0008.27,0002.89
2022-04-17 23:30:00,,0826.1,5.00,0.00,26.8,26.0,00.0,35.6,28.7,11.9,0000.0,0027.00,0008.23,0002.90
2022-04-17 23:31:00,,0826.0,5.00,0.00,26.8,26.0,00.0,35.6,28.6,12.1,0000.0,0027.37,0008.22,0002.90
2022-04-17 23:32:00,,0826.0,5.00,0.00,26.8,26.1,00.0,35.6,28.6,12.0,0000.0,0027.36,0008.22,0002.90
2022-04-17 23:33:00,,0826.1,5.00,0.00,26.8,26.1,00.0,35.6,28.6,11.9,0000.0,0026.49,0008.23,0002.88
2022-04-17 23:34:00,,0826.0,5.00,0.00,26.8,26.1,00.0,35.6,28.7,12.0,0000.0,0026.92,0008.26,0002.90
2022-04-17 23:35:00,,0826.0,4.99,0.00,26.8,26.1,00.0,35.7,28.6,12.1,0000.0,0027.32,0008.40,0002.91
2022-04-17 23:36:00,,0826.1,5.00,0.00,26.8,26.1,00.0,35.7,28.7,11.7,0000.0,0027.56,0008.35,0002.88
2022-04-17 23:37:00,,0826.0,5.00,0.00,26.9,26.2,00.0,35.7,28.7,11.7,0000.0,0027.39,0008.30,0002.86
2022-04-17 23:38:00,,0826.0,5.00,0.00,26.9,26.2,00.0,35.7,28.7,11.9,0000.0,0027.02,0008.20,0002.85
2022-04-17 23:39:00,,0826.0,5.00,0.00,26.9,26.2,00.0,35.7,28.8,11.9,0000.0,0026.08,0008.19,0002.85
2022-04-17 23:40:00,,0826.0,5.00,0.00,26.9,26.2,00.0,35.7,28.8,11.8,0000.0,0025.93,0008.33,0002.87
2022-04-17 23:41:00,,0826.0,5.01,0.00,26.9,26.2,00.0,35.7,28.8,11.6,0000.0,0026.60,0008.42,0002.86
2022-04-17 23:42:00,,0826.0,5.00,0.00,26.9,26.2,00.0,35.7,28.8,11.7,0000.0,0026.95,0008.40,0002.87
2022-04-17 23:43:00,,0826.1,5.01,0.00,26.9,26.2,00.0,35.7,28.8,11.6,0000.0,0027.22,0008.42,0002.87
2022-04-17 23:44:00,,0826.1,4.99,0.00,27.0,26.2,00.0,35.7,28.8,11.7,0000.0,0027.61,0008.44,0002.88
2022-04-17 23:45:00,,0826.0,4.99,0.00,27.0,26.2,00.0,35.8,28.8,11.5,0000.0,0027.86,0008.48,0002.86
2022-04-17 23:46:00,,0826.1,5.01,0.00,27.0,26.2,00.0,35.8,28.8,11.6,0000.0,0027.56,0008.37,0002.83
2022-04-17 23:47:00,,0826.1,5.00,0.00,27.0,26.2,00.0,35.8,28.8,11.6,0000.0,0026.93,0008.46,0002.88
2022-04-17 23:48:00,,0826.2,4.99,0.00,27.0,26.2,00.0,35.8,28.8,11.7,0000.0,0026.65,0008.47,0002.86
2022-04-17 23:49:00,,0826.3,5.01,0.00,27.0,26.2,00.0,35.8,28.8,11.8,0000.0,0026.46,0008.53,0002.85
2022-04-17 23:50:00,,0826.3,5.00,0.00,27.0,26.3,00.0,35.8,28.8,11.8,0000.0,0026.74,0008.60,0002.87
2022-04-17 23:51:00,,0826.3,5.01,0.00,27.0,26.3,00.0,35.8,28.8,11.8,0000.0,0026.49,0008.53,0002.86
2022-04-17 23:52:00,,0826.4,5.01,0.00,27.0,26.3,00.0,35.8,28.9,11.7,0000.0,0025.89,0008.48,0002.86
2022-04-17 23:53:00,,0826.5,5.00,0.00,27.0,26.3,00.0,35.8,28.8,11.5,0000.0,0026.13,0008.50,0002.87
2022-04-17 23:54:00,,0826.3,4.99,0.00,27.0,26.3,00.0,35.9,28.8,11.6,0000.0,0026.31,0008.50,0002.87
2022-04-17 23:55:00,,0826.4,5.00,0.00,27.0,26.3,00.0,35.9,28.9,11.6,0000.0,0026.54,0008.50,0002.86
2022-04-17 23:56:00,,0826.4,5.00,0.00,27.0,26.3,00.0,35.9,28.9,11.6,0000.0,0026.15,0008.53,0002.87
2022-04-17 23:57:00,,0826.5,5.00,0.00,27.0,26.2,00.0,35.9,28.8,11.6,0000.0,0026.20,0008.61,0002.89
2022-04-17 23:58:00,,0826.4,5.01,0.00,27.0,26.3,00.0,35.9,28.9,11.5,0000.0,0026.75,0008.55,0002.87
2022-04-17 23:59:00,,0826.5,5.00,0.00,27.0,26.3,00.0,35.9,28.9,11.5,0000.0,0026.82,0008.56,0002.91
